Regional Weather Roundup
Issued by NWS Grand Forks, ND

Home | Current Version | Previous Version | Text Only | Print | Product List | Glossary On
Versions: 1 2 3 4 5 6 7 8 9 10 11 12 13 14 15 16 17 18 19 20 21 22 23 24 25 26 27 28 29 30 31 32 33 34 35 36 37 38 39 40 41 42 43 44 45 46 47 48 49 50
000
ASUS43 KFGF 170931
RWRFGF
PRAIRIE TO PINES  WEATHER ROUNDUP
NATIONAL WEATHER SERVICE EASTERN NORTH DAKOTA/GRAND FORKS ND
300 AM CST WED JAN 17 2018

 **SATELLITE DATA USED TO AUGMENT SKY COVER AT AUTOMATED STATIONS**
 *****  WEATHER ACROSS EASTERN NORTH DAKOTA  *****

CITY           SKY/WX    TMP DP  RH WIND       PRES   REMARKS
GRAND FORKS    FAIR       7  -1  70 S16       30.15F WCI -11
GRAND FRKS AFB FAIR       9  -2  61 S14       30.13F WCI  -7
GRAND FRKS NWS   N/A      7 N/A N/A S16         N/A  WCI -11
DEVILS LAKE    FAIR      10   1  67 SW14      30.08F WCI  -6
FARGO          FAIR       5  -2  72 S16       30.27F WCI -14
WAHPETON ARPT  FAIR       1  -4  78 SE9       30.30F WCI -14
$$

 ***** WEATHER ACROSS CENTRAL AND WESTERN NORTH DAKOTA  *****

CITY           SKY/WX    TMP DP  RH WIND       PRES   REMARKS
BISMARCK       FAIR       0  -5  79 SE7       30.17F WCI -13
MINOT          FAIR      15   2  56 SW17      30.01S WCI  -1
JAMESTOWN      FAIR       3  -2  79 S7        30.17F WCI  -9
MINOT AFB      FAIR      13   2  60 W13       30.01F WCI  -1
GARRISON         N/A      3  -3  76 SW7       30.08F WCI  -9
WILLISTON      FAIR       8   1  73 S5        30.10S WCI   0
DICKINSON      FAIR      18   6  59 SW13      30.08R WCI   5
HETTINGER      FAIR       3  -4  72 W7        30.14F WCI  -9
$$

 *****  OTHER AIRPORT OBSERVATIONS IN OUR AREA  *****

CITY           SKY/WX    TMP DP  RH WIND       PRES   REMARKS
WALHALLA       FAIR      19   1  45 W12G18    29.98F WCI   7
GRAFTON AIRPOR FAIR       7  -2  66 S17       30.10F WCI -12
VALLEY CITY AR FLURRIES   3  -2  78 SW20G26   30.19F WCI -18
CANDO          FAIR       5  -2  72 SW10      30.06F WCI -10
CAVALIER APRT    N/A     12   1  62 S14       30.02F WCI  -3
GWINNER          N/A      5   0  78 SW20      30.24F WCI -15
SHEYENNE NWR     N/A      6  -2  70 SW12      29.95S WCI -10
ROLLA          FAIR      10   0  61 SW29      29.94F WCI -11
 ***** THE ABOVE OBSERVATIONS ARE NON NWS ARE NOT QUALITY
       CONTROLLED AND MAY MIS-REPORT RAIN FOR SNOW...
$$

  *****  WEATHER ACROSS NORTHERN MINNESOTA  *****

CITY           SKY/WX    TMP DP  RH WIND       PRES   REMARKS
FLAG ISLAND    FAIR       9   0  66 SW15G23   29.99F WCI  -8
WARROAD        FAIR       9   1  72 SW18G25   30.04F WCI -10
ROSEAU         FAIR      10   3  72 SW17      30.05F WCI  -7
HALLOCK        FAIR       5   0  78 S20       30.07F WCI -15
THF RVR FALLS  LGT SNOW   5   0  79 SW23      30.15F WCI -17
BAUDETTE       FAIR       9  -1  64 SW16      30.06F WCI  -8
WASKISH        FAIR      10   0  61 SW10      30.12F WCI  -3
CROOKSTON      FAIR       5   0  78 SW22G29   30.19F HAZE    WCI -16
STEPHEN NDAWN    N/A      3  -2  78 S22         N/A  WCI -19
GREENBUSH NDAW   N/A      5   0  78 S21         N/A  WCI -16
$$
  *****  WEATHER ACROSS CENTRAL AND WEST MINNESOTA  *****

CITY           SKY/WX    TMP DP  RH WIND       PRES   REMARKS
FOSSTON        FAIR       3  -2  78 S21       30.19F WCI -18
BEMIDJI        FAIR       7  -3  63 SW13      30.17F WCI  -9
PARK RAPIDS    FAIR       3  -5  69 SW8       30.23F WCI -10
ELBOW LAKE     FAIR       1  -4  80 S10       30.31F WCI -16
WADENA         FAIR       1  -6  71 SW3       30.26F
DETROIT LAKES  FAIR       3  -4  72 S5        30.25F WCI  -6
MOORHEAD       FAIR       1  -6  71 S10       30.28F WCI -14
FERGUS FALLS   FAIR       1  -6  71 S10       30.34F WCI -14
MORRIS MN      FAIR       1  -6  71 SE9       30.32F WCI -14
STAPLES        FAIR       3  -6  66 SW7       30.27F WCI  -9
$$
  *****  WEATHER ELSEWHERE ACROSS MINNESOTA  *****

CITY           SKY/WX    TMP DP  RH WIND       PRES   REMARKS
DULUTH         FAIR       4  -3  73 W17       30.22F WCI -16
INTRNTL FALLS  FAIR      10  -3  55 SW16G22   30.09F WCI  -7
ELY            FAIR       5  -2  72 SW12G18   30.12F WCI -11
CLOQUET        FAIR       1  -6  71 SW7       30.25F WCI -11
WHEATON        FAIR       0  -6  78 SE9       30.33S WCI -16
BRAINERD       FAIR       2  -5  72 S7        30.30F WCI -11
HIBBING        FAIR       2  -4  76 SW5       30.20F WCI  -8
ALEXANDRIA     FAIR       3  -4  72 SW12      30.30F WCI -13
SAINT CLOUD    FAIR      -2  -6  83 S6        30.37F WCI -14
MINNEAPOLIS    FAIR      -1  -5  82 SW3       30.46F
$$

  *****  WEATHER ACROSS SOUTH DAKOTA  *****

CITY           SKY/WX    TMP DP  RH WIND       PRES   REMARKS
SIOUX FALLS    FAIR       6   0  76 S13       30.41F WCI -10
BROOKINGS      FAIR       3  -2  79 S13       30.35F WCI -14
WATERTOWN      FAIR       4  -1  80 S10       30.30F WCI -11
HURON          FAIR       3  -2  79 S13       30.34S WCI -14
SISSETON         N/A     16   1  51 VRB5      30.27F WCI   9
ABERDEEN       FAIR       3  -2  79 S9        30.31S WCI -12
MITCHELL       FAIR       4  -2  76 S13       30.38F WCI -13
PIERRE         FAIR       6   1  80 SE7       30.24F WCI  -6
MOBRIDGE       FAIR       6   0  76 S5        30.20R WCI  -3
RAPID CITY     FAIR       9   0  67 CALM      30.14S
$$

  *****  SOME WEATHER IN NEARBY STATES *****

CITY           SKY/WX    TMP DP  RH WIND       PRES   REMARKS
GLASGOW MT     FAIR      -4  -9  79 NW7       30.13R WCI -18
GREAT FALLS MT FAIR      34  23  64 SW16G31   30.19S WCI  24
CHEYENNE WY    FAIR      13   1  59 CALM      30.18R
SCOTTSBLUFF NE FAIR       4   1  88 NW7       30.24R WCI  -8
OMAHA NE       FAIR       1  -3  83 SE9       30.60F WCI -14
DES MOINES IA  FAIR      -2  -7  79 SW5       30.60F WCI -12
DAVENPORT IA   FAIR       0  -6  76 W8        30.61S WCI -14
CHICAGO IL     FAIR       9   4  80 W10       30.53R WCI  -5
EAU CLAIRE WI  FAIR      -5  -8  87 SW6       30.45F WCI -18
LA CROSSE WI   FAIR      -1  -7  75 S7        30.54F WCI -14
$$

  *****  SOME NATIONAL WEATHER *****

CITY           SKY/WX    TMP DP  RH WIND       PRES   REMARKS
LA GUARDIA NY  LGT RAIN  35  32  88 NE9       30.26F
RALEIGH NC     CLOUDY    35  26  69 CALM      30.27S
ATLANTA GA     LGT SNOW  20  17  88 NW17      30.35S VSB 3/4 WCI   5
NEW ORLEANS LA MOCLDY    24  17  74 N13G22    30.57S WCI  12
OKLAHOMA CITY  FAIR       4  -1  80 CALM      30.69S
ALBUQUERQUE NM FAIR      22  15  75 NE7       30.40R WCI  13
SALT LAKE CITY MOCLDY    36  29  75 CALM      30.35S
LOS ANGELES CA MOCLDY    59  56  89 NW5       30.13F
BOISE ID       FOG       35  34  96 E8        30.37R VSB 1/4
SEATTLE WA     CLOUDY    46  37  71 E7        30.10F
$$

*** WEATHER ACROSS MANITOBA...SASKATCHEWAN AND ONTARIO ***
                ***ONTARIO***

CITY           SKY/WX    TMP DP  RH WIND       PRES   REMARKS
GERALDTON      FLURRIES  14   1  57 SW22G29   29.81F WCI  -4
THUNDER BAY    CLOUDY    16   5  62 W10       30.07F WCI   3
SIOUX LOOKOUT  MOCLDY     9  -2  61 SW13G20   29.89F WCI  -7
TORONTO        FLURRIES  14   9  79 W10       30.35F WCI   1
BIG TROUT LK   CLOUDY    14   7  73 NW12      29.64S WCI   0
PICKLE LAKE    NOT AVBL
DRYDEN         CLOUDY     7   0  72 SW16G23   29.92F WCI -11
KENORA         MOCLDY     5  -2  72 SW15G21   29.95F WCI -13
$$
                *** MANITOBA***

CITY           SKY/WX    TMP DP  RH WIND       PRES   REMARKS
BRANDON        CLEAR      9   0  66 W17       29.94F WCI -10
DAUPHIN        CLEAR     18   5  57 SW18G30   29.81R WCI   2
ISLAND LAKE    CLEAR      7   0  72 W7        29.72S WCI  -5
PILOT MOUND      N/A      7   0  72 SW15        N/A  WCI -11
THE PAS        CLEAR      5   0  78 S3        29.74F
THOMPSON       CLEAR      0  -6  78 CALM      29.70R
WINNIPEG       CLEAR      7  -2  66 S17       29.97F WCI -12
LYNN LAKE      CLEAR      3   1  92 NW7       29.70R WCI  -9
CHURCHILL      FLURRIES  12   9  85 NE16      29.76R WCI  -4
GILLAM         FLURRIES  12   9  85 N6        29.71R WCI   3
$$
                ***SASKATCHEWAN***

CITY           SKY/WX    TMP DP  RH WIND       PRES   REMARKS
ESTEVAN        PTCLDY     9   0  66 SW13      30.00S WCI  -7
KINDERSLEY     CLEAR     34  23  64 W20G35    29.81R WCI  22
LLOYDMINSTER   CLEAR     14  10  85 W12       29.72S WCI   0
PRINCE ALBERT  CLEAR     -2  -8  78 CALM      29.76F
REGINA         CLEAR      9   3  78 S6        29.91F WCI  -1
YORKTON        CLEAR     12   3  67 SW9       29.84F WCI   0
N. BATTLEFORD  CLEAR     10   5  79 NW6       29.77S WCI   1
LA RONGE       CLEAR     -2  -6  84 S6        29.73S WCI -14
SASKATOON      CLEAR     16  12  86 SW9       29.78F WCI   4
SWIFT CURRENT  CLEAR     37  23  56 W35G48    29.88F
$$
NOTE: THESE ARE AUTOMATED STATIONS WITH LIMITED QUALITY CONTROL
      "FAIR" INDICATES FEW OR NO CLOUDS BELOW 12,000 FEET WITH NO
      SIGNIFICANT WEATHER AND/OR OBSTRUCTIONS TO VISIBILITY.
      SKY/WX - SKY CONDITION AND SIGNIFICANT WEATHER.
      TMP - AIR TEMPERATURE.    DP   - DEWPOINT TEMPERATURE.
      RH  - RELATIVE HUMIDITY.  PRES - PRESSURE.
      HX  - HEAT INDEX.         WCI  - WIND CHILL INDEX.
$




USA.gov is the U.S. government's official web portal to all federal, state and local government web resources and services.